GW5815 Weather Reports


time (UTC)temp
C
wind
direction
speed
KPH
gust
KPH
rain 1hr
cm
rain 24hr
cm
rain mn
cm
humidity
%
barometer
mb
20260507120527 8 0 0.0 3.2 0.00 0.74 0.64 95 1008.7
20260507120048 8 250 0.0 3.2 0.00 0.74 0.64 95 1008.3
20260507115527 8 250 0.0 3.2 0.00 0.74 0.64 95 1008.0
20260507115027 8 258 0.0 1.6 0.00 0.74 0.64 96 1008.0
20260507114542 8 0 0.0 1.6 0.00 0.74 0.64 96 1008.1
20260507114030 8 236 0.0 1.6 0.00 0.74 0.64 96 1008.2
20260507113527 8 0 0.0 1.6 0.03 0.74 0.64 96 1007.9
20260507113043 8 0 0.0 1.6 0.03 0.74 0.64 96 1008.1
20260507112528 8 0 0.0 1.6 0.03 0.74 0.64 96 1008.1
20260507112027 8 0 0.0 1.6 0.05 0.74 0.64 96 1008.1
20260507111544 8 0 0.0 1.6 0.08 0.74 0.64 96 1008.2
20260507111029 8 0 0.0 1.6 0.13 0.74 0.64 96 1008.0
20260507110529 8 257 0.0 1.6 0.18 0.74 0.64 96 1007.9
20260507110044 8 0 0.0 1.6 0.18 0.74 0.64 96 1007.9
20260507105527 8 257 0.0 1.6 0.18 0.74 0.64 95 1008.0
20260507105027 8 0 0.0 1.6 0.18 0.74 0.64 96 1007.9
20260507104544 8 0 0.0 1.6 0.20 0.74 0.64 96 1007.9
20260507104028 8 0 0.0 1.6 0.20 0.74 0.64 95 1007.6
20260507103527 8 257 0.0 1.6 0.18 0.71 0.61 95 1007.8
20260507103041 8 0 0.0 1.6 0.18 0.71 0.61 95 1007.6
20260507102528 8 0 0.0 1.6 0.20 0.71 0.61 95 1007.8
20260507102028 8 265 0.0 1.6 0.18 0.69 0.58 95 1007.6
20260507101537 8 0 0.0 0.0 0.13 0.64 0.53 95 1007.9
20260507101026 8 0 0.0 0.0 0.08 0.58 0.48 95 1008.0
20260507100527 8 0 0.0 1.6 0.05 0.56 0.46 95 1008.0
20260507100039 8 0 0.0 1.6 0.05 0.56 0.46 95 1007.7
20260507095528 8 0 0.0 1.6 0.05 0.56 0.46 95 1007.8
20260507095028 8 0 0.0 1.6 0.05 0.56 0.46 95 1007.7
20260507094551 8 0 0.0 3.2 0.03 0.53 0.43 95 1007.7
20260507094028 8 0 0.0 3.2 0.05 0.53 0.43 95 1007.6
20260507093531 8 264 0.0 3.2 0.05 0.53 0.43 95 1007.6
20260507093043 8 0 0.0 1.6 0.08 0.53 0.43 95 1007.2
20260507092527 8 0 0.0 1.6 0.05 0.51 0.41 95 1007.4
20260507092030 8 0 0.0 1.6 0.05 0.51 0.41 95 1007.5
20260507091542 8 0 0.0 1.6 0.05 0.51 0.41 95 1007.4
20260507091028 8 113 0.0 1.6 0.08 0.51 0.41 95 1007.3
20260507090528 8 0 0.0 1.6 0.08 0.51 0.41 94 1007.4
20260507090040 8 0 0.0 1.6 0.08 0.51 0.41 94 1007.3
20260507085528 8 290 0.0 1.6 0.10 0.51 0.41 94 1007.4
20260507085028 8 0 0.0 3.2 0.13 0.51 0.41 94 1007.4
20260507084537 8 0 0.0 3.2 0.15 0.51 0.41 94 1007.0
20260507084027 8 313 0.0 1.6 0.13 0.48 0.38 94 1007.2
20260507083529 9 310 0.0 1.6 0.15 0.48 0.38 94 1007.5
20260507083043 9 310 0.0 1.6 0.20 0.46 0.36 94 1007.4
20260507082528 9 0 0.0 1.6 0.25 0.46 0.36 93 1007.3
20260507082027 9 0 0.0 1.6 0.33 0.46 0.36 93 1007.3
20260507081546 9 248 0.0 3.2 0.36 0.46 0.36 93 1007.4
20260507081027 9 0 0.0 3.2 0.33 0.43 0.33 93 1007.3
20260507080530 9 0 0.0 1.6 0.33 0.43 0.33 93 1007.2
20260507080040 9 0 0.0 1.6 0.30 0.41 0.30 92 1007.2
20260507075529 10 0 0.0 1.6 0.30 0.41 0.30 92 1007.7
20260507075027 10 270 0.0 1.6 0.28 0.38 0.28 92 1007.8
20260507074539 10 272 0.0 3.2 0.25 0.36 0.25 91 1007.6
20260507074031 10 272 0.0 4.8 0.25 0.36 0.25 90 1007.8
20260507073529 10 0 0.0 6.4 0.23 0.33 0.23 89 1007.3
20260507073037 11 0 0.0 6.4 0.13 0.23 0.13 88 1007.7
20260507072528 11 251 0.0 6.4 0.08 0.18 0.08 86 1007.5
20260507072027 11 266 0.0 6.4 0.03 0.13 0.03 84 1007.0
20260507071537 11 276 1.6 6.4 0.00 0.10 0.00 83 1006.6
20260507071027 11 278 0.0 6.4 0.00 0.10 0.00 82 1006.3
20260507070527 11 285 0.0 3.2 0.00 0.10 0.00 83 1006.3
20260507070040 12 257 0.0 4.8 0.00 0.10 0.00 83 1006.2
20260507065527 12 291 1.6 4.8 0.00 0.10 0.00 83 1006.3
20260507065027 12 286 1.6 6.4 0.00 0.10 0.00 83 1006.4
20260507064552 12 214 1.6 6.4 0.00 0.10 0.00 83 1006.3
20260507064027 12 265 0.0 3.2 0.00 0.10 0.00 85 1006.4
20260507063526 12 264 1.6 3.2 0.00 0.10 0.00 87 1006.6
20260507063045 12 0 0.0 4.8 0.00 0.10 0.00 90 1006.5
20260507062531 12 0 0.0 4.8 0.00 0.10 0.00 90 1006.5
20260507062028 13 279 0.0 4.8 0.00 0.10 0.00 90 1006.4
20260507061540 13 0 0.0 1.6 0.00 0.10 0.00 90 1006.3
20260507061027 13 314 0.0 4.8 0.00 0.10 0.00 90 1006.3
20260507060527 13 0 1.6 6.4 0.00 0.10 0.00 89 1006.5
20260507060045 13 290 1.6 6.4 0.00 0.10 0.00 90 1006.6
20260507055528 13 283 1.6 4.8 0.00 0.10 0.00 90 1006.6
20260507055027 13 319 0.0 3.2 0.00 0.10 0.00 91 1006.6
20260507054536 13 289 1.6 3.2 0.00 0.10 0.00 91 1006.8
20260507054032 13 251 0.0 3.2 0.00 0.10 0.00 91 1006.7
20260507053527 13 251 0.0 4.8 0.00 0.10 0.00 91 1006.8
20260507053041 13 252 0.0 4.8 0.00 0.10 0.00 91 1006.9
20260507052527 13 0 0.0 4.8 0.00 0.10 0.00 91 1006.9
20260507052031 13 238 1.6 4.8 0.00 0.10 0.00 91 1007.0
20260507051537 13 231 1.6 4.8 0.00 0.10 0.00 91 1006.8
20260507051030 13 246 1.6 4.8 0.00 0.10 0.00 91 1006.9
20260507050528 13 266 0.0 3.2 0.00 0.10 0.00 91 1006.9
20260507050047 13 0 1.6 8.0 0.00 0.10 0.00 91 1006.8
20260507045528 14 281 0.0 8.0 0.00 0.10 0.00 91 1007.0
20260507045028 14 233 1.6 8.0 0.00 0.10 0.00 91 1006.9
20260507044543 14 0 0.0 3.2 0.00 0.10 0.00 91 1007.1
20260507044029 14 262 0.0 3.2 0.00 0.10 0.00 92 1007.0
20260507043527 14 0 0.0 1.6 0.00 0.10 0.00 92 1007.0
20260507043035 14 0 0.0 0.0 0.00 0.10 0.00 92 1006.9
20260507042527 14 0 0.0 1.6 0.00 0.10 0.00 92 1006.8
20260507042027 14 0 0.0 1.6 0.00 0.10 0.00 93 1006.9
20260507041547 14 0 0.0 1.6 0.00 0.10 0.00 93 1007.0
20260507041027 14 0 0.0 4.8 0.00 0.10 0.00 93 1006.6
20260507040527 14 0 0.0 4.8 0.00 0.10 0.00 93 1006.9
20260507040040 14 304 1.6 4.8 0.00 0.10 0.00 93 1006.9
20260507035529 14 271 0.0 6.4 0.00 0.10 0.10 93 1006.9
20260507035027 14 259 1.6 9.7 0.00 0.10 0.10 93 1006.9
20260507034543 14 257 0.0 9.7 0.00 0.10 0.10 93 1006.9
20260507034029 14 236 1.6 8.0 0.00 0.10 0.10 93 1006.7
20260507033529 14 231 1.6 6.4 0.00 0.10 0.10 93 1006.8
20260507033049 14 139 3.2 6.4 0.00 0.10 0.10 93 1006.9
20260507032528 14 251 0.0 6.4 0.00 0.10 0.10 94 1007.2
20260507032027 14 213 3.2 6.4 0.00 0.10 0.10 94 1007.1
20260507031543 14 217 1.6 4.8 0.00 0.10 0.10 94 1006.9
20260507031027 14 211 0.0 4.8 0.00 0.10 0.10 94 1006.7
20260507030528 14 186 1.6 11.3 0.00 0.10 0.10 94 1006.8
20260507030043 14 233 1.6 11.3 0.00 0.10 0.10 94 1006.9
20260507025528 14 200 1.6 8.0 0.00 0.10 0.10 94 1006.7
20260507025027 14 165 3.2 8.0 0.00 0.10 0.10 94 1006.7
20260507024552 13 197 3.2 12.9 0.00 0.10 0.10 94 1006.7
20260507024027 13 235 3.2 12.9 0.00 0.10 0.10 94 1006.8
20260507023527 13 169 3.2 8.0 0.00 0.10 0.10 94 1006.6
20260507023044 13 181 3.2 8.0 0.00 0.10 0.10 94 1006.7
20260507022527 13 177 4.8 6.4 0.00 0.10 0.10 94 1006.7
20260507022030 13 203 3.2 6.4 0.00 0.10 0.10 94 1006.7
20260507021536 13 196 1.6 6.4 0.00 0.10 0.10 94 1006.8
20260507021028 13 197 1.6 8.0 0.00 0.10 0.10 94 1006.8
20260507020528 13 227 1.6 9.7 0.00 0.10 0.10 94 1006.8
20260507020037 13 235 4.8 9.7 0.00 0.10 0.10 95 1006.7
20260507015527 13 167 3.2 9.7 0.00 0.10 0.10 94 1006.6
20260507015027 13 126 3.2 9.7 0.00 0.10 0.10 95 1006.8
20260507014540 13 179 3.2 9.7 0.00 0.10 0.10 95 1006.7
20260507014027 13 195 3.2 9.7 0.00 0.10 0.10 95 1006.8
20260507013528 13 181 1.6 6.4 0.00 0.10 0.10 95 1006.8
20260507013039 13 166 1.6 6.4 0.00 0.10 0.10 95 1006.7
20260507012530 13 205 0.0 9.7 0.00 0.10 0.10 95 1006.8
20260507012030 13 168 3.2 9.7 0.00 0.10 0.10 95 1007.0
20260507011538 13 198 3.2 9.7 0.00 0.10 0.10 95 1007.1
20260507011027 13 169 4.8 9.7 0.00 0.10 0.10 95 1007.0
20260507010530 13 176 3.2 8.0 0.00 0.10 0.10 95 1007.1
20260507010043 13 160 3.2 9.7 0.00 0.10 0.10 95 1007.0
20260507005528 13 167 3.2 9.7 0.00 0.10 0.10 95 1007.1
20260507005029 13 176 1.6 9.7 0.00 0.10 0.10 95 1007.1
20260507004542 13 203 3.2 11.3 0.00 0.10 0.10 95 1007.1
20260507004027 13 202 3.2 11.3 0.00 0.10 0.10 95 1007.1
20260507003530 13 150 3.2 11.3 0.00 0.10 0.10 95 1007.1
20260507003043 13 169 3.2 11.3 0.00 0.10 0.10 95 1007.0
20260507002528 13 121 3.2 11.3 0.00 0.10 0.10 94 1007.0
20260507002030 13 155 6.4 11.3 0.00 0.10 0.10 94 1006.9
20260507001605 13 177 4.8 8.0 0.00 0.10 0.10 94 1006.8
20260507001027 13 159 4.8 8.0 0.00 0.10 0.10 94 1006.9
20260507000529 13 159 3.2 9.7 0.00 0.10 0.10 94 1006.9
20260507000035 13 163 4.8 9.7 0.00 0.10 0.10 94 1006.9
20260506235528 13 136 3.2 8.0 0.00 0.10 0.10 94 1006.9
20260506235029 13 142 3.2 8.0 0.00 0.10 0.10 94 1007.0
20260506234547 13 157 3.2 12.9 0.00 0.10 0.10 94 1006.8
20260506234027 13 190 1.6 12.9 0.00 0.10 0.10 94 1006.8
20260506233529 13 183 4.8 12.9 0.03 0.10 0.10 94 1006.7
20260506233036 13 172 3.2 9.7 0.03 0.10 0.10 94 1006.7
20260506232526 13 154 3.2 11.3 0.03 0.10 0.10 93 1006.7
20260506232034 13 208 3.2 11.3 0.03 0.10 0.10 93 1006.7
20260506231537 13 148 4.8 11.3 0.03 0.10 0.10 93 1006.8
20260506231029 13 203 4.8 11.3 0.03 0.10 0.10 93 1006.8
20260506230528 13 160 6.4 11.3 0.03 0.10 0.10 93 1006.8
20260506230045 13 181 6.4 11.3 0.03 0.10 0.10 93 1006.8
20260506225531 13 188 1.6 8.0 0.03 0.10 0.10 94 1006.9
20260506225029 13 167 3.2 9.7 0.03 0.10 0.10 93 1006.9
20260506224549 13 142 3.2 9.7 0.03 0.10 0.10 93 1006.9
20260506224027 13 182 3.2 11.3 0.05 0.10 0.10 93 1006.8
20260506223527 13 148 4.8 11.3 0.03 0.08 0.08 93 1006.7
20260506223042 13 128 4.8 9.7 0.03 0.08 0.08 93 1006.7
20260506222528 14 168 3.2 8.0 0.03 0.08 0.08 93 1006.7
20260506222029 14 195 4.8 9.7 0.03 0.08 0.08 93 1006.7
20260506221542 14 160 3.2 12.9 0.03 0.08 0.08 93 1006.8
20260506221029 14 136 3.2 12.9 0.03 0.08 0.08 93 1006.9
20260506220528 14 146 3.2 14.5 0.03 0.08 0.08 93 1007.1
20260506220045 14 179 3.2 14.5 0.03 0.08 0.08 92 1007.1
20260506215527 14 131 3.2 9.7 0.03 0.08 0.08 92 1007.3
20260506215028 14 172 4.8 11.3 0.03 0.08 0.08 92 1007.1
20260506214536 14 188 4.8 11.3 0.03 0.08 0.08 91 1007.2
20260506214033 14 186 4.8 14.5 0.00 0.05 0.05 91 1007.2
20260506213528 15 112 4.8 14.5 0.00 0.05 0.05 90 1007.1
20260506213035 15 193 4.8 12.9 0.00 0.05 0.05 90 1007.3
20260506212529 15 182 6.4 12.9 0.00 0.05 0.05 89 1007.3
20260506212027 15 153 4.8 16.1 0.00 0.05 0.05 89 1007.4
20260506211550 15 163 4.8 16.1 0.00 0.05 0.05 89 1007.4
20260506211027 15 205 4.8 12.9 0.00 0.05 0.05 89 1007.5
20260506210527 15 160 4.8 17.7 0.00 0.05 0.05 89 1007.5
20260506210039 15 169 6.4 17.7 0.00 0.05 0.05 89 1007.6
20260506205527 15 177 8.0 17.7 0.00 0.05 0.05 89 1007.5
20260506205027 15 84 4.8 11.3 0.00 0.05 0.05 89 1007.6
20260506204539 15 153 4.8 11.3 0.00 0.05 0.05 89 1007.6
20260506204028 15 188 6.4 14.5 0.03 0.05 0.05 89 1007.7
20260506203528 15 176 4.8 14.5 0.03 0.05 0.05 89 1007.7
20260506203047 15 203 4.8 11.3 0.03 0.05 0.05 89 1007.7
20260506202528 15 168 6.4 11.3 0.03 0.05 0.05 89 1007.8
20260506202029 15 174 3.2 14.5 0.05 0.05 0.05 89 1007.8
20260506201537 15 152 4.8 14.5 0.05 0.05 0.05 88 1007.9
20260506201028 15 159 4.8 16.1 0.05 0.05 0.05 88 1007.8
20260506200531 15 129 6.4 16.1 0.05 0.05 0.05 88 1007.7
20260506200042 15 160 6.4 14.5 0.05 0.05 0.05 88 1007.9
20260506195531 15 164 6.4 16.1 0.05 0.05 0.05 87 1007.9
20260506195029 15 90 8.0 16.1 0.05 0.05 0.05 87 1007.7
20260506194543 15 172 4.8 14.5 0.05 0.05 0.05 86 1007.7
20260506194029 16 148 4.8 14.5 0.03 0.03 0.03 85 1007.8
20260506193528 16 205 4.8 12.9 0.03 0.03 0.03 84 1007.9
20260506193035 16 115 3.2 9.7 0.03 0.03 0.03 83 1007.9
20260506192527 16 213 4.8 9.7 0.00 0.00 0.00 82 1007.9
20260506192027 16 177 3.2 12.9 0.00 0.00 0.00 81 1008.0
20260506191543 16 153 1.6 12.9 0.00 0.00 0.00 81 1008.0
20260506191028 16 188 4.8 9.7 0.00 0.00 0.00 80 1008.0
20260506190529 17 203 4.8 9.7 0.00 0.00 0.00 78 1008.0
20260506190043 17 124 4.8 12.9 0.00 0.00 0.00 77 1008.2
20260506185527 17 205 3.2 12.9 0.00 0.00 0.00 75 1008.2
20260506185030 17 165 8.0 14.5 0.00 0.00 0.00 74 1008.2
20260506184541 18 129 6.4 14.5 0.00 0.00 0.00 72 1008.2
20260506184028 18 105 4.8 8.0 0.00 0.00 0.00 72 1008.1
20260506183532 18 205 4.8 9.7 0.00 0.00 0.00 71 1008.1
20260506183041 18 192 3.2 12.9 0.00 0.00 0.00 71 1008.3
20260506182528 18 200 6.4 12.9 0.00 0.00 0.00 70 1008.4
20260506182029 18 211 8.0 16.1 0.00 0.00 0.00 70 1008.4
20260506181547 18 240 4.8 16.1 0.00 0.00 0.00 70 1008.5
20260506181029 19 154 6.4 17.7 0.00 0.00 0.00 69 1008.3
20260506180529 19 131 3.2 17.7 0.00 0.00 0.00 68 1008.3
20260506180044 19 153 8.0 17.7 0.00 0.00 0.00 67 1008.5
20260506175530 19 217 6.4 14.5 0.00 0.00 0.00 67 1008.5
20260506175025 20 184 6.4 14.5 0.00 0.00 0.00 67 1008.6
20260506174542 20 210 6.4 14.5 0.00 0.00 0.00 67 1008.6
20260506174025 20 127 6.4 14.5 0.00 0.00 0.00 66 1008.6
20260506173529 20 141 6.4 14.5 0.00 0.00 0.00 66 1008.7
20260506173054 20 134 6.4 12.9 0.00 0.00 0.00 66 1008.8
20260506172529 20 135 6.4 12.9 0.00 0.00 0.00 65 1008.9
20260506172028 20 146 4.8 19.3 0.00 0.00 0.00 65 1008.9
20260506171537 20 172 8.0 19.3 0.00 0.00 0.00 64 1008.8
20260506171029 20 195 9.7 19.3 0.00 0.00 0.00 63 1008.9
20260506170529 21 165 9.7 22.5 0.00 0.00 0.00 63 1008.8
20260506170037 21 165 11.3 22.5 0.00 0.00 0.00 62 1008.7
20260506165528 21 151 9.7 19.3 0.00 0.00 0.00 62 1008.6
20260506165029 21 188 9.7 19.3 0.00 0.00 0.00 63 1008.9
20260506164536 21 163 8.0 19.3 0.00 0.00 0.00 64 1008.9
20260506164030 20 179 6.4 29.0 0.00 0.00 0.00 64 1009.1
20260506163527 20 207 11.3 29.0 0.00 0.00 0.00 63 1009.3
20260506163042 21 185 9.7 20.9 0.00 0.00 0.00 63 1009.3
20260506162525 21 203 6.4 20.9 0.00 0.00 0.00 63 1009.3
20260506162030 21 168 11.3 20.9 0.00 0.00 0.00 63 1009.4
20260506161543 21 25 4.8 20.9 0.00 0.00 0.00 63 1009.5
20260506161031 21 204 8.0 22.5 0.00 0.00 0.00 63 1009.5
20260506160529 21 207 8.0 22.5 0.00 0.00 0.00 63 1009.7
20260506160041 21 154 9.7 22.5 0.00 0.00 0.00 62 1009.8
20260506155529 21 165 8.0 20.9 0.00 0.00 0.00 63 1009.7
20260506155028 21 156 9.7 20.9 0.00 0.00 0.00 62 1009.8
20260506154538 21 167 6.4 17.7 0.00 0.00 0.00 62 1009.8
20260506154028 21 223 6.4 19.3 0.00 0.00 0.00 62 1009.8
20260506153528 21 188 9.7 19.3 0.00 0.00 0.00 62 1009.8
20260506153035 21 201 6.4 16.1 0.00 0.00 0.00 63 1009.9
20260506152527 21 138 8.0 17.7 0.00 0.00 0.00 63 1010.0
20260506152028 21 220 3.2 17.7 0.00 0.00 0.00 65 1010.0
20260506151545 21 204 9.7 19.3 0.00 0.00 0.00 64 1010.0
20260506151028 20 228 6.4 19.3 0.00 0.00 0.00 65 1010.0
20260506150529 20 151 4.8 17.7 0.00 0.00 0.00 65 1010.1
20260506150049 20 168 4.8 11.3 0.00 0.00 0.00 66 1010.1
20260506145527 20 156 6.4 17.7 0.00 0.00 0.00 66 1010.2
20260506145028 20 187 6.4 17.7 0.00 0.00 0.00 66 1010.1
20260506144543 20 193 4.8 19.3 0.00 0.00 0.00 67 1010.2
20260506144031 20 205 8.0 19.3 0.00 0.00 0.00 66 1010.1
20260506143528 20 129 4.8 14.5 0.00 0.00 0.00 67 1010.0
20260506143036 20 138 4.8 17.7 0.00 0.00 0.00 67 1010.0
20260506142528 20 186 8.0 27.4 0.00 0.00 0.00 67 1009.9
20260506142027 20 175 11.3 27.4 0.00 0.00 0.00 66 1009.8
20260506141537 20 192 9.7 20.9 0.00 0.00 0.00 65 1009.9
20260506141032 20 201 9.7 25.7 0.00 0.00 0.00 65 1009.9
20260506140528 20 190 9.7 25.7 0.00 0.00 0.00 65 1010.0
20260506140043 20 180 9.7 22.5 0.00 0.00 0.00 65 1009.9
20260506135526 20 211 1.6 12.9 0.00 0.00 0.00 68 1009.9
20260506135029 20 143 8.0 16.1 0.00 0.00 0.00 67 1009.9
20260506134547 20 217 4.8 16.1 0.00 0.00 0.00 67 1009.9
20260506134029 19 165 8.0 16.1 0.00 0.00 0.00 68 1009.9
20260506133529 19 150 6.4 20.9 0.00 0.00 0.00 70 1010.1
20260506133038 18 148 6.4 20.9 0.00 0.00 0.00 70 1010.4
20260506132528 18 166 8.0 16.1 0.00 0.00 0.00 70 1010.6
20260506132030 19 121 4.8 17.7 0.00 0.00 0.00 69 1010.6
20260506131547 19 153 8.0 17.7 0.00 0.00 0.00 71 1010.5
20260506131030 18 150 6.4 14.5 0.00 0.00 0.00 72 1010.7
20260506130532 18 159 4.8 11.3 0.00 0.00 0.00 73 1010.6
20260506130052 18 155 4.8 14.5 0.00 0.00 0.00 73 1010.5
20260506125527 18 177 6.4 14.5 0.00 0.00 0.00 72 1010.6
20260506125028 18 176 4.8 11.3 0.00 0.00 0.00 74 1010.6
20260506124535 17 210 4.8 12.9 0.00 0.00 0.00 76 1010.6
20260506124028 17 129 4.8 12.9 0.00 0.00 0.00 76 1010.7
20260506123531 17 210 4.8 12.9 0.00 0.00 0.00 76 1010.6
20260506123043 17 150 4.8 12.9 0.00 0.00 0.00 77 1010.6
20260506122531 17 146 6.4 12.9 0.00 0.00 0.00 77 1010.7
20260506122028 17 159 6.4 12.9 0.00 0.00 0.00 78 1010.6
20260506121539 17 199 4.8 11.3 0.00 0.00 0.00 78 1010.6
20260506121028 16 161 4.8 11.3 0.00 0.00 0.00 79 1010.4